Weather Roundup
Issued by NWS Chicago, IL

Home | Current Version | Previous Version | Graphics & Text | Print | Product List | Glossary On
Versions: 1 2 3 4 5 6 7 8 9 10 11 12 13 14 15 16 17 18 19 20 21 22 23 24 25 26 27 28 29 30 31 32 33 34 35 36 37 38 39 40 41 42 43 44 45 46 47 48 49 50
000
NZUS59 KLOT 211758
HRRLOT

CHICAGO AREA WEATHER ROUNDUP
NATIONAL WEATHER SERVICE CHICAGO/ROMEOVILLE IL
100 PM CDT THU AUG 21 2014

NOTE: "FAIR" INDICATES FEW OR NO CLOUDS BELOW 12,000 FEET WITH NO
SIGNIFICANT WEATHER AND/OR OBSTRUCTIONS TO VISIBILITY.

* THESE STATIONS ARE NOT UNDER NWS QUALITY CONTROL. THEY ALSO MAY NOT
  REPORT WEATHER SUCH AS PRECIPITATION OR FOG.

ILZ005-006-012>014-019>023-211900-
NORTHEAST ILLINOIS

CITY           SKY/WX    TMP DP  RH WIND       PRES   REMARKS
OHARE          CLOUDY    77  68  73 SW3       29.96R
6HR MIN TEMP:  71; 6HR MAX TEMP:  77; 6HR PCP:  0.21;

MIDWAY         CLOUDY    79  72  79 S8        29.95S HX  82
6HR MIN TEMP:  72; 6HR MAX TEMP:  79; 6HR PCP:  0.36;

AURORA         CLOUDY    77  72  84 SW6       29.96S
6HR MIN TEMP:  70; 6HR MAX TEMP:  78; 6HR PCP:  0.38;

WAUKEGAN       RAIN      73  70  90 CALM      29.97R FOG
6HR MIN TEMP:  69; 6HR MAX TEMP:  75; 6HR PCP:  0.08;

DUPAGE AIRPORT CLOUDY    76  72  87 S5        29.96R
6HR MIN TEMP:  70; 6HR MAX TEMP:  76; 6HR PCP:  0.91;

WHEELING       LGT RAIN  77  71  82 CALM      29.97R
6HR MIN TEMP:  72; 6HR MAX TEMP:  77; 6HR PCP:  0.16;

NORTHERLY IS     N/A     77  70  79 SW6         N/A
$$

WIZ051-052-058>065-066-070>072-211900-
SOUTHEAST WISCONSIN

CITY           SKY/WX    TMP DP  RH WIND       PRES   REMARKS
MILWAUKEE      LGT RAIN  71  67  87 NW6       30.01R
6HR MIN TEMP:  68; 6HR MAX TEMP:  74; 6HR PCP:  0.02;

WAUKESHA       RAIN      70  68  94 NW5       30.02R FOG
$$

INZ001>003-010>013-019-020-211900-
NORTHWEST INDIANA

CITY           SKY/WX    TMP DP  RH WIND       PRES   REMARKS
GARY*          CLOUDY    79  73  83 SW12      29.97R HX  82
MICHIGAN CITY* NOT AVBL
RENSSELAER*    NOT AVBL
VALPARAISO     CLOUDY    75  72  88 S9        29.98S
$$

LMZ740>746-211900-
SOUTHERN LAKE MICHIGAN

STATION/POSITION TIME  SKY/WX   TEMP WIND        PRES    VSBY
                                AIR  DIR/SP/G
                 (UTC)          (F)  (DEG/KT/KT) (MB)    (MI)
HARRISON CRIB    1700            74  190/ 10/ 12   N/A
BURNHAM HARBOR   1700            77  200/  6/  9   N/A
CALUMET HARBOR   1700            76  200/  6/  9 1013.2R
BURNS HARBOR     NOT AVBL
MICHIGAN CITY    1700            74  180/  7/  9   N/A
$$

ABBREVIATIONS USED IN REMARKS
   TC - TEMPERATURE IN CELSIUS
  WCI - WIND CHILL INDEX
   HX - HEAT INDEX
  VSB - VISIBILITY
$$



USA.gov is the U.S. government's official web portal to all federal, state and local government web resources and services.